| time (UTC) | temp F | wind direction | speed MPH | gust MPH | rain 1hr in | rain 24hr in | rain mn in | humidity % | barometer mb |
| 20260502221021 | 72 | 201 | 4.0 | 15.0 | 0.00 | 0.00 | 0.00 | 62 | |
| 20260502220819 | 71 | 261 | 11.0 | 14.0 | 0.00 | 0.00 | 0.00 | 61 | |
| 20260502220617 | 71 | 271 | 7.0 | 14.0 | 0.00 | 0.00 | 0.00 | 62 | |
| 20260502220415 | 71 | 260 | 11.0 | 14.0 | 0.00 | 0.00 | 0.00 | 61 | |
| 20260502220213 | 71 | 285 | 9.0 | 14.0 | 0.00 | 0.00 | 0.00 | 60 | |
| 20260502220011 | 72 | 251 | 11.0 | 14.0 | 0.00 | 0.00 | 0.00 | 62 | |
| 20260502215809 | 72 | 254 | 9.0 | 14.0 | 0.00 | 0.00 | 0.00 | 61 | |
| 20260502215607 | 71 | 272 | 5.0 | 14.0 | 0.00 | 0.00 | 0.00 | 61 | |
| 20260502215405 | 72 | 254 | 10.0 | 14.0 | 0.00 | 0.00 | 0.00 | 61 | |
| 20260502215203 | 72 | 262 | 11.0 | 12.0 | 0.00 | 0.00 | 0.00 | 60 | |
| 20260502214800 | 72 | 258 | 3.0 | 12.0 | 0.00 | 0.00 | 0.00 | 60 | |
| 20260502214356 | 72 | 257 | 4.0 | 12.0 | 0.00 | 0.00 | 0.00 | 61 | |
| 20260502214152 | 72 | 244 | 7.0 | 15.0 | 0.00 | 0.00 | 0.00 | 61 | |
| 20260502213748 | 72 | 255 | 8.0 | 13.0 | 0.00 | 0.00 | 0.00 | 61 | |
| 20260502213346 | 72 | 229 | 13.0 | 13.0 | 0.00 | 0.00 | 0.00 | 60 | |
| 20260502213144 | 72 | 260 | 9.0 | 17.0 | 0.00 | 0.00 | 0.00 | 60 | |
| 20260502212942 | 72 | 247 | 6.0 | 17.0 | 0.00 | 0.00 | 0.00 | 61 | |
| 20260502212740 | 72 | 264 | 9.0 | 15.0 | 0.00 | 0.00 | 0.00 | 60 | |
| 20260502212334 | 73 | 255 | 16.0 | 15.0 | 0.00 | 0.00 | 0.00 | 59 | |
| 20260502211932 | 72 | 274 | 12.0 | 16.0 | 0.00 | 0.00 | 0.00 | 60 | |
| 20260502211730 | 73 | 268 | 9.0 | 14.0 | 0.00 | 0.00 | 0.00 | 60 | |
| 20260502211528 | 72 | 244 | 12.0 | 14.0 | 0.00 | 0.00 | 0.00 | 60 | |
| 20260502211326 | 72 | 268 | 11.0 | 14.0 | 0.00 | 0.00 | 0.00 | 59 | |
| 20260502211124 | 73 | 289 | 8.0 | 14.0 | 0.00 | 0.00 | 0.00 | 59 | |
| 20260502210921 | 73 | 278 | 6.0 | 14.0 | 0.00 | 0.00 | 0.00 | 58 | |
| 20260502210720 | 73 | 239 | 3.0 | 16.0 | 0.00 | 0.00 | 0.00 | 59 | |
| 20260502210518 | 72 | 277 | 7.0 | 16.0 | 0.00 | 0.00 | 0.00 | 59 | |
| 20260502210316 | 73 | 258 | 12.0 | 12.0 | 0.00 | 0.00 | 0.00 | 58 | |
| 20260502210114 | 73 | 201 | 5.0 | 12.0 | 0.00 | 0.00 | 0.00 | 59 | |
| 20260502205912 | 73 | 253 | 9.0 | 12.0 | 0.00 | 0.00 | 0.00 | 59 | |
| 20260502205709 | 73 | 267 | 8.0 | 15.0 | 0.00 | 0.00 | 0.00 | 58 | |
| 20260502205509 | 72 | 250 | 9.0 | 15.0 | 0.00 | 0.00 | 0.00 | 59 | |
| 20260502205307 | 73 | 246 | 10.0 | 14.0 | 0.00 | 0.00 | 0.00 | 59 | |
| 20260502205105 | 72 | 282 | 10.0 | 14.0 | 0.00 | 0.00 | 0.00 | 59 | |
| 20260502204903 | 72 | 270 | 4.0 | 14.0 | 0.00 | 0.00 | 0.00 | 59 | |
| 20260502204701 | 72 | 282 | 8.0 | 14.0 | 0.00 | 0.00 | 0.00 | 58 | |
| 20260502204255 | 74 | 265 | 8.0 | 14.0 | 0.00 | 0.00 | 0.00 | 59 | |
| 20260502204055 | 73 | 180 | 3.0 | 14.0 | 0.00 | 0.00 | 0.00 | 59 | |
| 20260502203853 | 73 | 275 | 7.0 | 14.0 | 0.00 | 0.00 | 0.00 | 59 | |
| 20260502203247 | 73 | 255 | 8.0 | 13.0 | 0.00 | 0.00 | 0.00 | 59 | |
| 20260502202843 | 73 | 270 | 5.0 | 13.0 | 0.00 | 0.00 | 0.00 | 60 | |
| 20260502202640 | 73 | 264 | 11.0 | 13.0 | 0.00 | 0.00 | 0.00 | 60 | |
| 20260502202439 | 73 | 268 | 9.0 | 13.0 | 0.00 | 0.00 | 0.00 | 59 | |
| 20260502202035 | 73 | 262 | 6.0 | 11.0 | 0.00 | 0.00 | 0.00 | 59 | |
| 20260502201834 | 73 | 275 | 7.0 | 11.0 | 0.00 | 0.00 | 0.00 | 58 | |
| 20260502201632 | 73 | 281 | 5.0 | 15.0 | 0.00 | 0.00 | 0.00 | 57 | |
| 20260502201227 | 73 | 264 | 6.0 | 14.0 | 0.00 | 0.00 | 0.00 | 58 | |
| 20260502201026 | 73 | 261 | 10.0 | 14.0 | 0.00 | 0.00 | 0.00 | 57 | |
| 20260502200826 | 74 | 260 | 10.0 | 11.0 | 0.00 | 0.00 | 0.00 | 57 | |
| 20260502200622 | 74 | 282 | 1.0 | 11.0 | 0.00 | 0.00 | 0.00 | 57 | |
| 20260502200420 | 74 | 278 | 5.0 | 11.0 | 0.00 | 0.00 | 0.00 | 56 | |
| 20260502200218 | 75 | 261 | 6.0 | 11.0 | 0.00 | 0.00 | 0.00 | 56 | |
| 20260502195814 | 74 | 257 | 5.0 | 12.0 | 0.00 | 0.00 | 0.00 | 56 | |
| 20260502195612 | 74 | 264 | 8.0 | 12.0 | 0.00 | 0.00 | 0.00 | 57 | |
| 20260502195410 | 74 | 268 | 1.0 | 12.0 | 0.00 | 0.00 | 0.00 | 57 | |
| 20260502195208 | 74 | 272 | 8.0 | 10.0 | 0.00 | 0.00 | 0.00 | 57 | |
| 20260502195006 | 73 | 267 | 7.0 | 10.0 | 0.00 | 0.00 | 0.00 | 58 | |
| 20260502194804 | 73 | 243 | 7.0 | 10.0 | 0.00 | 0.00 | 0.00 | 58 | |
| 20260502194602 | 73 | 277 | 6.0 | 10.0 | 0.00 | 0.00 | 0.00 | 57 | |
| 20260502194158 | 72 | 286 | 5.0 | 10.0 | 0.00 | 0.00 | 0.00 | 59 | |
| 20260502193351 | 72 | 260 | 2.0 | 8.0 | 0.00 | 0.00 | 0.00 | 59 | |
| 20260502193149 | 72 | 284 | 7.0 | 12.0 | 0.00 | 0.00 | 0.00 | 59 | |
| 20260502192947 | 72 | 271 | 5.0 | 12.0 | 0.00 | 0.00 | 0.00 | 61 | |
| 20260502192744 | 71 | 265 | 8.0 | 11.0 | 0.00 | 0.00 | 0.00 | 61 | |
| 20260502192542 | 71 | 268 | 8.0 | 11.0 | 0.00 | 0.00 | 0.00 | 61 | |
| 20260502192340 | 71 | 189 | 2.0 | 11.0 | 0.00 | 0.00 | 0.00 | 62 | |
| 20260502192139 | 71 | 265 | 2.0 | 12.0 | 0.00 | 0.00 | 0.00 | 63 | |
| 20260502191937 | 70 | 274 | 9.0 | 12.0 | 0.00 | 0.00 | 0.00 | 62 | |
| 20260502191733 | 71 | 274 | 8.0 | 13.0 | 0.00 | 0.00 | 0.00 | 63 | |
| 20260502191531 | 70 | 274 | 7.0 | 13.0 | 0.00 | 0.00 | 0.00 | 62 | |
| 20260502191331 | 71 | 275 | 7.0 | 13.0 | 0.00 | 0.00 | 0.00 | 64 | |
| 20260502191129 | 70 | 296 | 6.0 | 12.0 | 0.00 | 0.00 | 0.00 | 63 | |
| 20260502190927 | 70 | 274 | 6.0 | 12.0 | 0.00 | 0.00 | 0.00 | 64 | |
| 20260502190725 | 70 | 232 | 8.0 | 13.0 | 0.00 | 0.00 | 0.00 | 64 | |
| 20260502190523 | 70 | 279 | 7.0 | 13.0 | 0.00 | 0.00 | 0.00 | 66 | |
| 20260502185917 | 70 | 274 | 5.0 | 12.0 | 0.00 | 0.00 | 0.00 | 65 | |
| 20260502185513 | 70 | 262 | 7.0 | 11.0 | 0.00 | 0.00 | 0.00 | 66 | |
| 20260502185109 | 70 | 262 | 9.0 | 10.0 | 0.00 | 0.00 | 0.00 | 67 | |
| 20260502184504 | 69 | 282 | 7.0 | 10.0 | 0.00 | 0.00 | 0.00 | 67 | |
| 20260502184301 | 69 | 262 | 5.0 | 11.0 | 0.00 | 0.00 | 0.00 | 67 | |
| 20260502183654 | 69 | 255 | 6.0 | 12.0 | 0.00 | 0.00 | 0.00 | 68 | |
| 20260502183453 | 69 | 258 | 8.0 | 12.0 | 0.00 | 0.00 | 0.00 | 68 | |
| 20260502183251 | 69 | 257 | 5.0 | 8.0 | 0.00 | 0.00 | 0.00 | 68 | |
| 20260502183050 | 69 | 286 | 6.0 | 8.0 | 0.00 | 0.00 | 0.00 | 66 | |
| 20260502182646 | 70 | 271 | 2.0 | 6.0 | 0.00 | 0.00 | 0.00 | 67 | |
| 20260502182444 | 70 | 300 | 0.0 | 6.0 | 0.00 | 0.00 | 0.00 | 68 | |
| 20260502182242 | 69 | 248 | 1.0 | 5.0 | 0.00 | 0.00 | 0.00 | 67 | |
| 20260502182040 | 69 | 210 | 6.0 | 5.0 | 0.00 | 0.00 | 0.00 | 67 | |
| 20260502181838 | 69 | 122 | 1.0 | 5.0 | 0.00 | 0.00 | 0.00 | 69 | |
| 20260502181637 | 69 | 133 | 4.0 | 5.0 | 0.00 | 0.00 | 0.00 | 68 | |
| 20260502181232 | 68 | 119 | 2.0 | 1.0 | 0.00 | 0.00 | 0.00 | 72 | |
| 20260502181031 | 68 | 116 | 1.0 | 1.0 | 0.00 | 0.00 | 0.00 | 72 | |
| 20260502180828 | 67 | 90 | 0.0 | 1.0 | 0.00 | 0.00 | 0.00 | 75 | |
| 20260502180626 | 67 | 90 | 0.0 | 5.0 | 0.00 | 0.00 | 0.00 | 77 | |
| 20260502180425 | 66 | 150 | 0.0 | 5.0 | 0.00 | 0.00 | 0.00 | 76 | |
| 20260502180223 | 66 | 178 | 3.0 | 2.0 | 0.00 | 0.00 | 0.00 | 74 | |
| 20260502170328 | 60 | 278 | 5.0 | 9.0 | 0.00 | 0.00 | 0.00 | 87 | |
| 20260502170126 | 60 | 292 | 4.0 | 9.0 | 0.00 | 0.00 | 0.00 | 87 | |
| 20260502164309 | 59 | 274 | 5.0 | 9.0 | 0.00 | 0.00 | 0.00 | 90 | |
| 20260502164107 | 59 | 310 | 3.0 | 9.0 | 0.00 | 0.00 | 0.00 | 90 | |
| 20260502163905 | 59 | 255 | 7.0 | 9.0 | 0.00 | 0.00 | 0.00 | 91 | |
| 20260502163703 | 59 | 270 | 6.0 | 10.0 | 0.00 | 0.00 | 0.00 | 91 | |
| 20260502163501 | 58 | 300 | 6.0 | 10.0 | 0.00 | 0.00 | 0.00 | 91 | |
| 20260502163259 | 58 | 282 | 7.0 | 10.0 | 0.00 | 0.00 | 0.00 | 90 | |
| 20260502162855 | 59 | 285 | 7.0 | 10.0 | 0.00 | 0.00 | 0.00 | 91 | |
| 20260502162653 | 59 | 274 | 5.0 | 8.0 | 0.00 | 0.00 | 0.00 | 93 | |
| 20260502162451 | 58 | 278 | 5.0 | 8.0 | 0.00 | 0.00 | 0.00 | 94 | |
| 20260502162250 | 58 | 293 | 3.0 | 9.0 | 0.00 | 0.00 | 0.00 | 94 | |
| 20260502162046 | 58 | 291 | 6.0 | 9.0 | 0.00 | 0.00 | 0.00 | 94 | |
| 20260502161846 | 57 | 317 | 3.0 | 9.0 | 0.00 | 0.00 | 0.00 | 94 | |
| 20260502161039 | 57 | 275 | 7.0 | 9.0 | 0.00 | 0.00 | 0.00 | 95 | |
| 20260502160835 | 57 | 275 | 8.0 | 9.0 | 0.00 | 0.00 | 0.00 | 95 | |
| 20260502160635 | 57 | 284 | 6.0 | 10.0 | 0.00 | 0.00 | 0.00 | 95 | |
| 20260502160433 | 57 | 281 | 6.0 | 10.0 | 0.00 | 0.00 | 0.00 | 95 | |
| 20260502160230 | 57 | 285 | 6.0 | 11.0 | 0.00 | 0.00 | 0.00 | 95 | |
| 20260502152153 | 56 | 208 | 0.0 | 3.0 | 0.00 | 0.00 | 0.00 | 97 | |
| 20260502151951 | 57 | 157 | 0.0 | 3.0 | 0.00 | 0.00 | 0.00 | 97 | |
| 20260502151747 | 57 | 185 | 3.0 | 4.0 | 0.00 | 0.00 | 0.00 | 97 | |
| 20260502151547 | 56 | 177 | 2.0 | 4.0 | 0.00 | 0.00 | 0.00 | 97 | |
| 20260502151346 | 56 | 184 | 0.0 | 4.0 | 0.00 | 0.00 | 0.00 | 97 | |
| 20260502150740 | 55 | 137 | 3.0 | 7.0 | 0.00 | 0.00 | 0.00 | 97 | |
| 20260502150538 | 55 | 157 | 3.0 | 7.0 | 0.00 | 0.00 | 0.00 | 97 | |
| 20260502150134 | 54 | 180 | 3.0 | 7.0 | 0.00 | 0.00 | 0.00 | 97 | |
| 20260502130747 | 52 | 296 | 0.0 | 0.0 | 0.00 | 0.00 | 0.00 | 96 | |
| 20260502130546 | 52 | 296 | 0.0 | 0.0 | 0.00 | 0.00 | 0.00 | 96 | |
| 20260502130344 | 52 | 296 | 0.0 | 0.0 | 0.00 | 0.00 | 0.00 | 96 | |
| 20260502123718 | 51 | 296 | 0.0 | 0.0 | 0.00 | 0.00 | 0.00 | 96 | |
| 20260502123517 | 51 | 296 | 0.0 | 0.0 | 0.00 | 0.00 | 0.00 | 96 | |
| 20260502123315 | 51 | 296 | 0.0 | 0.0 | 0.00 | 0.00 | 0.00 | 96 | |
| 20260502123113 | 51 | 296 | 0.0 | 0.0 | 0.00 | 0.00 | 0.00 | 96 | |
| 20260502122911 | 51 | 296 | 0.0 | 0.0 | 0.00 | 0.00 | 0.00 | 96 | |
| 20260502122707 | 51 | 296 | 0.0 | 0.0 | 0.00 | 0.00 | 0.00 | 96 | |
| 20260502122508 | 51 | 296 | 0.0 | 0.0 | 0.00 | 0.00 | 0.00 | 96 | |
| 20260502122306 | 51 | 296 | 0.0 | 0.0 | 0.00 | 0.00 | 0.00 | 96 | |
| 20260502122102 | 51 | 296 | 0.0 | 0.0 | 0.00 | 0.00 | 0.00 | 96 | |
| 20260502121900 | 51 | 296 | 0.0 | 0.0 | 0.00 | 0.00 | 0.00 | 96 | |
| 20260502121700 | 52 | 296 | 0.0 | 0.0 | 0.00 | 0.00 | 0.00 | 96 | |
| 20260502121458 | 52 | 296 | 0.0 | 0.0 | 0.00 | 0.00 | 0.00 | 96 | |
| 20260502121256 | 52 | 296 | 0.0 | 0.0 | 0.00 | 0.00 | 0.00 | 96 | |
| 20260502121054 | 52 | 296 | 0.0 | 0.0 | 0.00 | 0.00 | 0.00 | 96 | |
| 20260502120851 | 53 | 296 | 0.0 | 0.0 | 0.00 | 0.00 | 0.00 | 96 | |
| 20260502120651 | 53 | 296 | 0.0 | 0.0 | 0.00 | 0.00 | 0.00 | 96 | |
| 20260502120448 | 53 | 296 | 0.0 | 0.0 | 0.00 | 0.00 | 0.00 | 96 | |
| 20260502120246 | 53 | 296 | 0.0 | 4.0 | 0.00 | 0.00 | 0.00 | 96 | |
| 20260502115843 | 53 | 296 | 0.0 | 4.0 | 0.00 | 0.00 | 0.00 | 96 | |
| 20260502115641 | 53 | 313 | 2.0 | 3.0 | 0.00 | 0.00 | 0.00 | 96 | |
| 20260502115439 | 53 | 317 | 3.0 | 3.0 | 0.00 | 0.00 | 0.00 | 96 | |
| 20260502115237 | 53 | 309 | 1.0 | 2.0 | 0.00 | 0.00 | 0.00 | 96 | |
| 20260502115034 | 52 | 303 | 0.0 | 2.0 | 0.00 | 0.00 | 0.00 | 96 | |
| 20260502114833 | 52 | 303 | 0.0 | 2.0 | 0.00 | 0.00 | 0.00 | 96 | |
| 20260502114631 | 52 | 261 | 0.0 | 0.0 | 0.00 | 0.00 | 0.00 | 96 | |
| 20260502114429 | 52 | 261 | 0.0 | 0.0 | 0.00 | 0.00 | 0.00 | 96 | |
| 20260502114227 | 52 | 261 | 0.0 | 0.0 | 0.00 | 0.00 | 0.00 | 96 | |
| 20260502114026 | 52 | 261 | 0.0 | 0.0 | 0.00 | 0.00 | 0.00 | 96 | |
| 20260502113824 | 52 | 261 | 0.0 | 0.0 | 0.00 | 0.00 | 0.00 | 96 | |
| 20260502113621 | 52 | 261 | 0.0 | 0.0 | 0.00 | 0.00 | 0.00 | 96 | |
| 20260502113420 | 52 | 261 | 0.0 | 0.0 | 0.00 | 0.00 | 0.00 | 96 | |
| 20260502113218 | 52 | 261 | 0.0 | 0.0 | 0.00 | 0.00 | 0.00 | 96 | |
| 20260502113016 | 52 | 261 | 0.0 | 0.0 | 0.00 | 0.00 | 0.00 | 96 | |
| 20260502112814 | 52 | 261 | 0.0 | 0.0 | 0.00 | 0.00 | 0.00 | 96 | |
| 20260502112612 | 52 | 261 | 0.0 | 0.0 | 0.00 | 0.00 | 0.00 | 96 | |
| 20260502112410 | 52 | 261 | 0.0 | 0.0 | 0.00 | 0.00 | 0.00 | 96 | |
| 20260502112007 | 52 | 261 | 0.0 | 0.0 | 0.00 | 0.00 | 0.00 | 95 | |
| 20260502111805 | 52 | 261 | 0.0 | 0.0 | 0.00 | 0.00 | 0.00 | 95 | |
| 20260502111603 | 52 | 261 | 0.0 | 0.0 | 0.00 | 0.00 | 0.00 | 95 | |
| 20260502111400 | 52 | 261 | 0.0 | 0.0 | 0.00 | 0.00 | 0.00 | 95 | |
| 20260502111159 | 52 | 261 | 0.0 | 0.0 | 0.00 | 0.00 | 0.00 | 95 | |
| 20260502110957 | 52 | 261 | 0.0 | 0.0 | 0.00 | 0.00 | 0.00 | 96 | |
| 20260502110755 | 52 | 261 | 0.0 | 0.0 | 0.00 | 0.00 | 0.00 | 95 | |
| 20260502110553 | 52 | 261 | 0.0 | 0.0 | 0.00 | 0.00 | 0.00 | 95 | |
| 20260502110351 | 52 | 261 | 0.0 | 0.0 | 0.00 | 0.00 | 0.00 | 95 | |
| 20260502110149 | 52 | 261 | 0.0 | 0.0 | 0.00 | 0.00 | 0.00 | 95 | |
| 20260502105947 | 52 | 261 | 0.0 | 0.0 | 0.00 | 0.00 | 0.00 | 95 | |
| 20260502105746 | 52 | 261 | 0.0 | 0.0 | 0.00 | 0.00 | 0.00 | 95 | |
| 20260502105544 | 52 | 261 | 0.0 | 0.0 | 0.00 | 0.00 | 0.00 | 95 | |
| 20260502105341 | 52 | 261 | 0.0 | 0.0 | 0.00 | 0.00 | 0.00 | 95 | |
| 20260502105140 | 53 | 261 | 0.0 | 0.0 | 0.00 | 0.00 | 0.00 | 95 | |
| 20260502104936 | 53 | 261 | 0.0 | 0.0 | 0.00 | 0.00 | 0.00 | 95 | |
| 20260502104534 | 53 | 261 | 0.0 | 0.0 | 0.00 | 0.00 | 0.00 | 95 | |
| 20260502104335 | 53 | 261 | 0.0 | 0.0 | 0.00 | 0.00 | 0.00 | 95 | |
| 20260502104130 | 53 | 261 | 0.0 | 0.0 | 0.00 | 0.00 | 0.00 | 95 | |
| 20260502103726 | 53 | 261 | 0.0 | 0.0 | 0.00 | 0.00 | 0.00 | 95 | |
| 20260502103525 | 53 | 261 | 0.0 | 0.0 | 0.00 | 0.00 | 0.00 | 95 | |
| 20260502103323 | 53 | 261 | 0.0 | 0.0 | 0.00 | 0.00 | 0.00 | 95 | |
| 20260502103121 | 53 | 261 | 0.0 | 0.0 | 0.00 | 0.00 | 0.00 | 95 | |
| 20260502102919 | 53 | 261 | 0.0 | 0.0 | 0.00 | 0.00 | 0.00 | 95 | |
| 20260502102718 | 53 | 261 | 0.0 | 0.0 | 0.00 | 0.00 | 0.00 | 95 | |
| 20260502102515 | 53 | 261 | 0.0 | 0.0 | 0.00 | 0.00 | 0.00 | 95 | |
| 20260502102312 | 53 | 261 | 0.0 | 0.0 | 0.00 | 0.00 | 0.00 | 95 | |
| 20260502102111 | 53 | 261 | 0.0 | 0.0 | 0.00 | 0.00 | 0.00 | 95 | |
| 20260502101909 | 53 | 261 | 0.0 | 0.0 | 0.00 | 0.00 | 0.00 | 95 | |
| 20260502101708 | 53 | 261 | 0.0 | 0.0 | 0.00 | 0.00 | 0.00 | 95 | |
| 20260502101505 | 53 | 261 | 0.0 | 0.0 | 0.00 | 0.00 | 0.00 | 95 | |
| 20260502101304 | 53 | 261 | 0.0 | 0.0 | 0.00 | 0.00 | 0.00 | 95 | |
| 20260502101101 | 53 | 261 | 0.0 | 0.0 | 0.00 | 0.00 | 0.00 | 95 | |
| 20260502100858 | 53 | 261 | 0.0 | 0.0 | 0.00 | 0.00 | 0.00 | 95 | |
| 20260502100658 | 53 | 261 | 0.0 | 0.0 | 0.00 | 0.00 | 0.00 | 95 | |
| 20260502100456 | 53 | 261 | 0.0 | 0.0 | 0.00 | 0.00 | 0.00 | 95 | |
| 20260502091408 | 54 | 261 | 0.0 | 0.0 | 0.00 | 0.00 | 0.00 | 95 | |
| 20260502091206 | 54 | 261 | 0.0 | 0.0 | 0.00 | 0.00 | 0.00 | 95 | |
| 20260502090803 | 54 | 261 | 0.0 | 0.0 | 0.00 | 0.00 | 0.00 | 95 | |
| 20260502090601 | 54 | 261 | 0.0 | 0.0 | 0.00 | 0.00 | 0.00 | 95 | |
| 20260502090359 | 54 | 261 | 0.0 | 0.0 | 0.00 | 0.00 | 0.00 | 95 | |
| 20260502090157 | 54 | 261 | 0.0 | 0.0 | 0.00 | 0.00 | 0.00 | 95 | |
| 20260502071416 | 55 | 261 | 0.0 | 0.0 | 0.00 | 0.00 | 0.00 | 93 | |
| 20260502071214 | 55 | 261 | 0.0 | 0.0 | 0.00 | 0.00 | 0.00 | 93 | |
| 20260502071012 | 55 | 261 | 0.0 | 0.0 | 0.00 | 0.00 | 0.00 | 93 | |
| 20260502070810 | 55 | 261 | 0.0 | 0.0 | 0.00 | 0.00 | 0.00 | 93 | |
| 20260502070608 | 55 | 261 | 0.0 | 0.0 | 0.00 | 0.00 | 0.00 | 93 | |
| 20260502070406 | 55 | 261 | 0.0 | 0.0 | 0.00 | 0.00 | 0.00 | 93 | |
| 20260502070204 | 55 | 261 | 0.0 | 0.0 | 0.00 | 0.00 | 0.00 | 93 | |
| 20260502065800 | 55 | 261 | 0.0 | 0.0 | 0.00 | 0.00 | 0.00 | 93 | |
| 20260502065357 | 55 | 261 | 0.0 | 0.0 | 0.00 | 0.00 | 0.00 | 93 | |
| 20260502065155 | 55 | 261 | 0.0 | 0.0 | 0.00 | 0.00 | 0.00 | 93 | |
| 20260502064953 | 55 | 261 | 0.0 | 0.0 | 0.00 | 0.00 | 0.00 | 93 | |
| 20260502064751 | 55 | 261 | 0.0 | 0.0 | 0.00 | 0.00 | 0.00 | 93 | |
| 20260502064345 | 54 | 261 | 0.0 | 0.0 | 0.00 | 0.00 | 0.00 | 93 | |
| 20260502064145 | 54 | 261 | 0.0 | 0.0 | 0.00 | 0.00 | 0.00 | 93 | |
| 20260502063741 | 54 | 261 | 0.0 | 0.0 | 0.00 | 0.00 | 0.00 | 93 | |
| 20260502063539 | 54 | 261 | 0.0 | 0.0 | 0.00 | 0.00 | 0.00 | 93 | |
| 20260502063338 | 54 | 261 | 0.0 | 0.0 | 0.00 | 0.00 | 0.00 | 93 | |
| 20260502062933 | 54 | 261 | 0.0 | 0.0 | 0.00 | 0.00 | 0.00 | 92 | |
| 20260502062732 | 54 | 261 | 0.0 | 0.0 | 0.00 | 0.00 | 0.00 | 93 | |
| 20260502062530 | 54 | 261 | 0.0 | 0.0 | 0.00 | 0.00 | 0.00 | 92 | |
| 20260502062126 | 54 | 261 | 0.0 | 0.0 | 0.00 | 0.00 | 0.00 | 92 | |
| 20260502061924 | 54 | 261 | 0.0 | 0.0 | 0.00 | 0.00 | 0.00 | 91 | |
| 20260502061520 | 55 | 261 | 0.0 | 0.0 | 0.00 | 0.00 | 0.00 | 91 | |
| 20260502061318 | 55 | 261 | 0.0 | 0.0 | 0.00 | 0.00 | 0.00 | 91 | |
| 20260502061117 | 55 | 261 | 0.0 | 0.0 | 0.00 | 0.00 | 0.00 | 91 | |
| 20260502060713 | 56 | 261 | 0.0 | 0.0 | 0.00 | 0.00 | 0.00 | 92 | |
| 20260502060511 | 56 | 261 | 0.0 | 0.0 | 0.00 | 0.00 | 0.00 | 92 | |
| 20260502060309 | 56 | 261 | 0.0 | 0.0 | 0.00 | 0.00 | 0.00 | 92 | |
| 20260502060107 | 56 | 261 | 0.0 | 0.0 | 0.00 | 0.00 | 0.00 | 92 | |
| 20260502055703 | 56 | 261 | 0.0 | 0.0 | 0.00 | 0.00 | 0.00 | 91 | |
| 20260502055501 | 56 | 261 | 0.0 | 0.0 | 0.00 | 0.00 | 0.00 | 91 | |
| 20260502055300 | 56 | 261 | 0.0 | 0.0 | 0.00 | 0.00 | 0.00 | 91 | |
| 20260502055058 | 56 | 261 | 0.0 | 0.0 | 0.00 | 0.00 | 0.00 | 91 | |
| 20260502054654 | 56 | 261 | 0.0 | 0.0 | 0.00 | 0.00 | 0.00 | 91 | |
| 20260502054452 | 56 | 261 | 0.0 | 0.0 | 0.00 | 0.00 | 0.00 | 91 | |
| 20260502054250 | 56 | 261 | 0.0 | 0.0 | 0.00 | 0.00 | 0.00 | 91 | |
| 20260502054048 | 56 | 261 | 0.0 | 0.0 | 0.00 | 0.00 | 0.00 | 91 | |
| 20260502053846 | 56 | 261 | 0.0 | 0.0 | 0.00 | 0.00 | 0.00 | 91 | |
| 20260502053645 | 56 | 261 | 0.0 | 0.0 | 0.00 | 0.00 | 0.00 | 91 | |
| 20260502053442 | 56 | 261 | 0.0 | 0.0 | 0.00 | 0.00 | 0.00 | 91 | |
| 20260502053241 | 56 | 261 | 0.0 | 0.0 | 0.00 | 0.00 | 0.00 | 91 | |
| 20260502053038 | 56 | 261 | 0.0 | 0.0 | 0.00 | 0.00 | 0.00 | 90 | |
| 20260502052837 | 56 | 261 | 0.0 | 0.0 | 0.00 | 0.00 | 0.00 | 90 | |
| 20260502052635 | 56 | 261 | 0.0 | 0.0 | 0.00 | 0.00 | 0.00 | 90 | |
| 20260502051825 | 57 | 261 | 0.0 | 0.0 | 0.00 | 0.00 | 0.00 | 90 | |
| 20260502051625 | 57 | 261 | 0.0 | 0.0 | 0.00 | 0.00 | 0.00 | 90 | |
| 20260502051424 | 57 | 261 | 0.0 | 0.0 | 0.00 | 0.00 | 0.00 | 90 | |
| 20260502050818 | 57 | 261 | 0.0 | 0.0 | 0.00 | 0.00 | 0.00 | 90 | |
| 20260502050414 | 57 | 261 | 0.0 | 0.0 | 0.00 | 0.00 | 0.00 | 89 | |
| 20260502050010 | 57 | 261 | 0.0 | 0.0 | 0.00 | 0.00 | 0.00 | 90 | |
| 20260502045606 | 57 | 261 | 0.0 | 0.0 | 0.00 | 0.00 | 0.00 | 89 | |
| 20260502045404 | 57 | 261 | 0.0 | 0.0 | 0.00 | 0.00 | 0.00 | 89 | |
| 20260502044759 | 57 | 261 | 0.0 | 0.0 | 0.00 | 0.00 | 0.00 | 89 | |
| 20260502044557 | 57 | 261 | 0.0 | 0.0 | 0.00 | 0.00 | 0.00 | 89 | |
| 20260502044355 | 57 | 261 | 0.0 | 0.0 | 0.00 | 0.00 | 0.00 | 89 | |
| 20260502044153 | 57 | 261 | 0.0 | 0.0 | 0.00 | 0.00 | 0.00 | 89 | |
| 20260502043951 | 57 | 261 | 0.0 | 0.0 | 0.00 | 0.00 | 0.00 | 89 | |
| 20260502043749 | 58 | 261 | 0.0 | 0.0 | 0.00 | 0.00 | 0.00 | 89 | |
| 20260502043547 | 58 | 261 | 0.0 | 0.0 | 0.00 | 0.00 | 0.00 | 89 | |
| 20260502043345 | 58 | 261 | 0.0 | 0.0 | 0.00 | 0.00 | 0.00 | 89 | |
| 20260502043143 | 58 | 261 | 0.0 | 0.0 | 0.00 | 0.00 | 0.00 | 89 | |
| 20260502042941 | 58 | 261 | 0.0 | 0.0 | 0.00 | 0.00 | 0.00 | 88 | |
| 20260502042739 | 58 | 261 | 0.0 | 0.0 | 0.00 | 0.00 | 0.00 | 88 | |
| 20260502042336 | 58 | 261 | 0.0 | 0.0 | 0.00 | 0.00 | 0.00 | 88 | |
| 20260502041932 | 58 | 261 | 0.0 | 0.0 | 0.00 | 0.00 | 0.00 | 88 | |
| 20260502041528 | 58 | 261 | 0.0 | 0.0 | 0.00 | 0.00 | 0.00 | 88 | |
| 20260502041326 | 58 | 261 | 0.0 | 0.0 | 0.00 | 0.00 | 0.00 | 88 | |
| 20260502041123 | 58 | 261 | 0.0 | 0.0 | 0.00 | 0.00 | 0.00 | 88 | |
| 20260502040922 | 58 | 261 | 0.0 | 0.0 | 0.00 | 0.00 | 0.00 | 88 | |
| 20260502040720 | 58 | 261 | 0.0 | 1.0 | 0.00 | 0.00 | 0.00 | 88 | |
| 20260502040519 | 58 | 261 | 0.0 | 1.0 | 0.00 | 0.00 | 0.00 | 88 | |
| 20260502040317 | 58 | 261 | 0.0 | 2.0 | 0.00 | 0.00 | 0.00 | 88 | |
| 20260502040115 | 58 | 261 | 0.0 | 2.0 | 0.00 | 0.00 | 0.00 | 88 | |
| 20260502035911 | 58 | 286 | 0.0 | 2.0 | 0.00 | 0.00 | 0.00 | 88 | |
| 20260502035711 | 58 | 281 | 0.0 | 2.0 | 0.00 | 0.00 | 0.00 | 88 | |
| 20260502035307 | 58 | 270 | 0.0 | 4.0 | 0.00 | 0.00 | 0.00 | 87 | |
| 20260502035105 | 59 | 270 | 0.0 | 4.0 | 0.00 | 0.00 | 0.00 | 87 | |
| 20260502034903 | 59 | 270 | 0.0 | 4.0 | 0.00 | 0.00 | 0.00 | 87 | |
| 20260502034701 | 59 | 274 | 1.0 | 5.0 | 0.00 | 0.00 | 0.00 | 87 | |
| 20260502034459 | 59 | 292 | 2.0 | 5.0 | 0.00 | 0.00 | 0.00 | 87 | |
| 20260502034055 | 59 | 284 | 2.0 | 5.0 | 0.00 | 0.00 | 0.00 | 87 | |
| 20260502033852 | 59 | 288 | 2.0 | 5.0 | 0.00 | 0.00 | 0.00 | 87 | |
| 20260502033450 | 59 | 286 | 2.0 | 5.0 | 0.00 | 0.00 | 0.00 | 86 | |
| 20260502033248 | 59 | 292 | 3.0 | 3.0 | 0.00 | 0.00 | 0.00 | 86 | |
| 20260502033046 | 59 | 285 | 3.0 | 3.0 | 0.00 | 0.00 | 0.00 | 86 | |
| 20260502032843 | 59 | 292 | 4.0 | 3.0 | 0.00 | 0.00 | 0.00 | 86 | |
| 20260502032643 | 59 | 279 | 2.0 | 6.0 | 0.00 | 0.00 | 0.00 | 85 | |
| 20260502032440 | 60 | 284 | 1.0 | 6.0 | 0.00 | 0.00 | 0.00 | 85 | |
| 20260502032238 | 60 | 277 | 1.0 | 7.0 | 0.00 | 0.00 | 0.00 | 85 | |
| 20260502032036 | 60 | 277 | 4.0 | 7.0 | 0.00 | 0.00 | 0.00 | 85 | |
| 20260502031835 | 60 | 279 | 5.0 | 7.0 | 0.00 | 0.00 | 0.00 | 85 | |
| 20260502031633 | 60 | 274 | 4.0 | 7.0 | 0.00 | 0.00 | 0.00 | 85 | |
| 20260502031431 | 60 | 282 | 5.0 | 7.0 | 0.00 | 0.00 | 0.00 | 84 | |
| 20260502031229 | 60 | 261 | 6.0 | 3.0 | 0.00 | 0.00 | 0.00 | 83 | |
| 20260502031027 | 61 | 289 | 2.0 | 3.0 | 0.00 | 0.00 | 0.00 | 83 | |
| 20260502030825 | 61 | 291 | 3.0 | 3.0 | 0.00 | 0.00 | 0.00 | 82 | |
| 20260502030623 | 61 | 271 | 0.0 | 2.0 | 0.00 | 0.00 | 0.00 | 82 | |
| 20260502030421 | 61 | 271 | 0.0 | 2.0 | 0.00 | 0.00 | 0.00 | 81 | |
| 20260502030219 | 61 | 271 | 0.0 | 4.0 | 0.00 | 0.00 | 0.00 | 81 | |
| 20260502030018 | 61 | 278 | 1.0 | 4.0 | 0.00 | 0.00 | 0.00 | 81 | |
| 20260502025816 | 62 | 279 | 2.0 | 6.0 | 0.00 | 0.00 | 0.00 | 81 | |
| 20260502025615 | 62 | 250 | 1.0 | 6.0 | 0.00 | 0.00 | 0.00 | 80 | |
| 20260502025412 | 62 | 289 | 1.0 | 6.0 | 0.00 | 0.00 | 0.00 | 80 | |
| 20260502025210 | 62 | 289 | 3.0 | 5.0 | 0.00 | 0.00 | 0.00 | 80 | |
| 20260502025008 | 62 | 260 | 6.0 | 5.0 | 0.00 | 0.00 | 0.00 | 79 | |
| 20260502024604 | 62 | 264 | 2.0 | 4.0 | 0.00 | 0.00 | 0.00 | 78 | |
| 20260502024402 | 63 | 281 | 2.0 | 4.0 | 0.00 | 0.00 | 0.00 | 78 | |
| 20260502024200 | 63 | 291 | 0.0 | 5.0 | 0.00 | 0.00 | 0.00 | 78 | |
| 20260502023959 | 63 | 274 | 2.0 | 5.0 | 0.00 | 0.00 | 0.00 | 78 | |
| 20260502023757 | 63 | 281 | 1.0 | 8.0 | 0.00 | 0.00 | 0.00 | 77 | |
| 20260502023555 | 63 | 288 | 3.0 | 8.0 | 0.00 | 0.00 | 0.00 | 77 | |
| 20260502023353 | 63 | 293 | 3.0 | 8.0 | 0.00 | 0.00 | 0.00 | 77 | |
| 20260502023151 | 63 | 258 | 4.0 | 5.0 | 0.00 | 0.00 | 0.00 | 76 | |
| 20260502022949 | 64 | 278 | 3.0 | 5.0 | 0.00 | 0.00 | 0.00 | 76 | |
| 20260502022747 | 64 | 292 | 4.0 | 6.0 | 0.00 | 0.00 | 0.00 | 76 | |
| 20260502022544 | 64 | 288 | 2.0 | 6.0 | 0.00 | 0.00 | 0.00 | 75 | |
| 20260502022344 | 64 | 282 | 1.0 | 6.0 | 0.00 | 0.00 | 0.00 | 75 | |
| 20260502022141 | 64 | 291 | 3.0 | 8.0 | 0.00 | 0.00 | 0.00 | 75 | |
| 20260502021939 | 64 | 271 | 5.0 | 8.0 | 0.00 | 0.00 | 0.00 | 75 | |
| 20260502021738 | 65 | 299 | 3.0 | 6.0 | 0.00 | 0.00 | 0.00 | 74 | |
| 20260502021536 | 64 | 279 | 3.0 | 6.0 | 0.00 | 0.00 | 0.00 | 74 | |
| 20260502021132 | 65 | 260 | 4.0 | 8.0 | 0.00 | 0.00 | 0.00 | 73 | |
| 20260502020930 | 65 | 282 | 2.0 | 8.0 | 0.00 | 0.00 | 0.00 | 74 | |
| 20260502020728 | 65 | 281 | 5.0 | 7.0 | 0.00 | 0.00 | 0.00 | 73 | |
| 20260502020526 | 65 | 272 | 6.0 | 7.0 | 0.00 | 0.00 | 0.00 | 73 | |
| 20260502020325 | 66 | 270 | 6.0 | 7.0 | 0.00 | 0.00 | 0.00 | 72 | |
| 20260502020122 | 66 | 278 | 6.0 | 7.0 | 0.00 | 0.00 | 0.00 | 71 | |
| 20260502015921 | 66 | 260 | 5.0 | 7.0 | 0.00 | 0.00 | 0.00 | 71 | |
| 20260502015113 | 66 | 286 | 5.0 | 8.0 | 0.00 | 0.00 | 0.00 | 70 | |
| 20260502014909 | 67 | 253 | 4.0 | 8.0 | 0.00 | 0.00 | 0.00 | 69 | |
| 20260502014304 | 67 | 272 | 4.0 | 8.0 | 0.00 | 0.00 | 0.00 | 69 | |
| 20260502014105 | 67 | 268 | 5.0 | 8.0 | 0.00 | 0.00 | 0.00 | 68 | |
| 20260502013902 | 68 | 274 | 6.0 | 8.0 | 0.00 | 0.00 | 0.00 | 68 | |
| 20260502013458 | 68 | 293 | 5.0 | 5.0 | 0.00 | 0.00 | 0.00 | 68 | |
| 20260502012851 | 68 | 209 | 0.0 | 8.0 | 0.00 | 0.00 | 0.00 | 69 | |
| 20260502012650 | 68 | 227 | 0.0 | 9.0 | 0.00 | 0.00 | 0.00 | 68 | |
| 20260502012447 | 68 | 284 | 3.0 | 9.0 | 0.00 | 0.00 | 0.00 | 68 | |
| 20260502012045 | 68 | 270 | 8.0 | 9.0 | 0.00 | 0.00 | 0.00 | 67 | |
| 20260502011843 | 68 | 260 | 0.0 | 9.0 | 0.00 | 0.00 | 0.00 | 68 | |
| 20260502011641 | 68 | 291 | 5.0 | 9.0 | 0.00 | 0.00 | 0.00 | 67 | |
| 20260502011439 | 68 | 270 | 7.0 | 9.0 | 0.00 | 0.00 | 0.00 | 67 | |
| 20260502011035 | 68 | 267 | 0.0 | 9.0 | 0.00 | 0.00 | 0.00 | 67 | |
| 20260502010836 | 68 | 272 | 4.0 | 9.0 | 0.00 | 0.00 | 0.00 | 67 | |
| 20260502010631 | 68 | 270 | 2.0 | 11.0 | 0.00 | 0.00 | 0.00 | 68 | |
| 20260502010429 | 68 | 284 | 5.0 | 11.0 | 0.00 | 0.00 | 0.00 | 68 | |
| 20260502010226 | 68 | 267 | 2.0 | 11.0 | 0.00 | 0.00 | 0.00 | 68 | |
| 20260502005824 | 68 | 284 | 8.0 | 11.0 | 0.00 | 0.00 | 0.00 | 67 | |
| 20260502005621 | 68 | 264 | 9.0 | 11.0 | 0.00 | 0.00 | 0.00 | 66 | |
| 20260502005420 | 68 | 243 | 7.0 | 11.0 | 0.00 | 0.00 | 0.00 | 66 | |
| 20260502005016 | 68 | 274 | 6.0 | 12.0 | 0.00 | 0.00 | 0.00 | 66 | |
| 20260502004814 | 68 | 274 | 9.0 | 11.0 | 0.00 | 0.00 | 0.00 | 65 | |
| 20260502004613 | 69 | 279 | 7.0 | 11.0 | 0.00 | 0.00 | 0.00 | 65 | |
| 20260502004410 | 69 | 264 | 7.0 | 11.0 | 0.00 | 0.00 | 0.00 | 64 | |
| 20260502004208 | 69 | 284 | 3.0 | 12.0 | 0.00 | 0.00 | 0.00 | 64 | |
| 20260502004007 | 69 | 289 | 3.0 | 12.0 | 0.00 | 0.00 | 0.00 | 65 | |
| 20260502003804 | 69 | 187 | 1.0 | 10.0 | 0.00 | 0.00 | 0.00 | 65 | |
| 20260502003603 | 69 | 257 | 5.0 | 10.0 | 0.00 | 0.00 | 0.00 | 65 | |
| 20260502003159 | 69 | 261 | 7.0 | 12.0 | 0.00 | 0.00 | 0.00 | 64 | |
| 20260502002957 | 69 | 255 | 7.0 | 12.0 | 0.00 | 0.00 | 0.00 | 64 | |
| 20260502002753 | 69 | 254 | 7.0 | 10.0 | 0.00 | 0.00 | 0.00 | 64 | |
| 20260502002552 | 69 | 265 | 7.0 | 10.0 | 0.00 | 0.00 | 0.00 | 64 | |
| 20260502002349 | 69 | 248 | 10.0 | 10.0 | 0.00 | 0.00 | 0.00 | 64 | |
| 20260502002147 | 69 | 264 | 6.0 | 11.0 | 0.00 | 0.00 | 0.00 | 64 | |
| 20260502001947 | 69 | 232 | 6.0 | 11.0 | 0.00 | 0.00 | 0.00 | 64 | |
| 20260502001745 | 69 | 293 | 3.0 | 12.0 | 0.00 | 0.00 | 0.00 | 64 | |
| 20260502001341 | 69 | 289 | 2.0 | 12.0 | 0.00 | 0.00 | 0.00 | 64 | |
| 20260502001139 | 69 | 267 | 11.0 | 11.0 | 0.00 | 0.00 | 0.00 | 62 | |
| 20260502000937 | 70 | 262 | 9.0 | 11.0 | 0.00 | 0.00 | 0.00 | 62 | |
| 20260502000733 | 70 | 264 | 5.0 | 16.0 | 0.00 | 0.00 | 0.00 | 63 | |
| 20260502000533 | 70 | 261 | 8.0 | 16.0 | 0.00 | 0.00 | 0.00 | 62 | |
| 20260502000332 | 70 | 230 | 3.0 | 16.0 | 0.00 | 0.00 | 0.00 | 63 | |
| 20260502000129 | 70 | 261 | 15.0 | 11.0 | 0.00 | 0.00 | 0.00 | 62 | |
| 20260501235927 | 70 | 248 | 7.0 | 11.0 | 0.00 | 0.00 | 0.00 | 61 | |
| 20260501235524 | 71 | 222 | 4.0 | 13.0 | 0.00 | 0.00 | 0.00 | 62 | |
| 20260501235321 | 70 | 254 | 8.0 | 14.0 | 0.00 | 0.00 | 0.00 | 61 | |
| 20260501235120 | 70 | 255 | 7.0 | 14.0 | 0.00 | 0.00 | 0.00 | 62 | |
| 20260501234714 | 70 | 262 | 6.0 | 13.0 | 0.00 | 0.00 | 0.00 | 61 | |
| 20260501234514 | 70 | 270 | 11.0 | 13.0 | 0.00 | 0.00 | 0.00 | 61 | |
| 20260501234312 | 70 | 264 | 2.0 | 14.0 | 0.00 | 0.00 | 0.00 | 62 | |
| 20260501234108 | 70 | 244 | 6.0 | 14.0 | 0.00 | 0.00 | 0.00 | 63 | |
| 20260501233908 | 69 | 264 | 9.0 | 14.0 | 0.00 | 0.00 | 0.00 | 62 | |
| 20260501233706 | 70 | 260 | 10.0 | 16.0 | 0.00 | 0.00 | 0.00 | 61 | |
| 20260501233504 | 71 | 222 | 5.0 | 16.0 | 0.00 | 0.00 | 0.00 | 61 | |
| 20260501233303 | 70 | 258 | 7.0 | 15.0 | 0.00 | 0.00 | 0.00 | 62 | |
| 20260501233100 | 70 | 282 | 6.0 | 15.0 | 0.00 | 0.00 | 0.00 | 61 | |
| 20260501232656 | 71 | 254 | 9.0 | 10.0 | 0.00 | 0.00 | 0.00 | 61 | |
| 20260501232456 | 72 | 271 | 11.0 | 10.0 | 0.00 | 0.00 | 0.00 | 60 | |
| 20260501232252 | 72 | 278 | 4.0 | 12.0 | 0.00 | 0.00 | 0.00 | 59 | |
| 20260501232050 | 72 | 275 | 5.0 | 12.0 | 0.00 | 0.00 | 0.00 | 59 | |
| 20260501231848 | 72 | 250 | 6.0 | 12.0 | 0.00 | 0.00 | 0.00 | 59 | |
| 20260501231646 | 72 | 320 | 2.0 | 15.0 | 0.00 | 0.00 | 0.00 | 58 | |
| 20260501231444 | 72 | 267 | 10.0 | 15.0 | 0.00 | 0.00 | 0.00 | 58 | |
| 20260501231242 | 73 | 285 | 1.0 | 14.0 | 0.00 | 0.00 | 0.00 | 59 | |
| 20260501231040 | 72 | 234 | 2.0 | 14.0 | 0.00 | 0.00 | 0.00 | 59 | |
| 20260501230838 | 72 | 244 | 5.0 | 14.0 | 0.00 | 0.00 | 0.00 | 59 | |
| 20260501230636 | 72 | 274 | 6.0 | 14.0 | 0.00 | 0.00 | 0.00 | 58 | |
| 20260501230434 | 73 | 270 | 8.0 | 14.0 | 0.00 | 0.00 | 0.00 | 58 | |
| 20260501230233 | 72 | 264 | 7.0 | 15.0 | 0.00 | 0.00 | 0.00 | 59 | |
| 20260501230028 | 72 | 317 | 5.0 | 15.0 | 0.00 | 0.00 | 0.00 | 59 | |
| 20260501225626 | 72 | 246 | 6.0 | 15.0 | 0.00 | 0.00 | 0.00 | 59 | |
| 20260501225425 | 72 | 272 | 9.0 | 15.0 | 0.00 | 0.00 | 0.00 | 59 | |
| 20260501225221 | 72 | 286 | 8.0 | 15.0 | 0.00 | 0.00 | 0.00 | 59 | |
| 20260501225021 | 71 | 268 | 9.0 | 15.0 | 0.00 | 0.00 | 0.00 | 59 | |
| 20260501224616 | 73 | 247 | 9.0 | 13.0 | 0.00 | 0.00 | 0.00 | 57 | |
| 20260501224415 | 73 | 275 | 5.0 | 13.0 | 0.00 | 0.00 | 0.00 | 58 | |
| 20260501224213 | 72 | 279 | 6.0 | 13.0 | 0.00 | 0.00 | 0.00 | 58 | |
| 20260501224011 | 73 | 261 | 8.0 | 13.0 | 0.00 | 0.00 | 0.00 | 56 | |
| 20260501223809 | 73 | 257 | 8.0 | 12.0 | 0.00 | 0.00 | 0.00 | 56 | |
| 20260501223607 | 73 | 241 | 11.0 | 12.0 | 0.00 | 0.00 | 0.00 | 56 | |
| 20260501223203 | 73 | 286 | 5.0 | 15.0 | 0.00 | 0.00 | 0.00 | 57 | |
| 20260501223000 | 73 | 281 | 3.0 | 15.0 | 0.00 | 0.00 | 0.00 | 57 | |
| 20260501222356 | 74 | 262 | 11.0 | 13.0 | 0.00 | 0.00 | 0.00 | 56 | |
| 20260501222153 | 74 | 225 | 6.0 | 15.0 | 0.00 | 0.00 | 0.00 | 56 | |
| 20260501221959 | 73 | 251 | 8.0 | 15.0 | 0.00 | 0.00 | 0.00 | 54 | |
| 20260501221749 | 74 | 267 | 7.0 | 13.0 | 0.00 | 0.00 | 0.00 | 55 | |
| 20260501221547 | 74 | 247 | 6.0 | 13.0 | 0.00 | 0.00 | 0.00 | 55 | |
| 20260501221345 | 74 | 248 | 10.0 | 13.0 | 0.00 | 0.00 | 0.00 | 55 | |
| 20260501221144 | 74 | 243 | 9.0 | 16.0 | 0.00 | 0.00 | 0.00 | 55 |